169  
ASUS44 KMOB 260112  
RWRMOB  
REGIONAL WEATHER ROUNDUP  
NATIONAL WEATHER SERVICE MOBILE AL  
800 PM CDT SUN JUN 25 2017  
 
NOTE: "FAIR" INDICATES FEW OR NO CLOUDS BELOW 12,000 FEET WITH NO  
SIGNIFICANT WEATHER AND/OR S TO VISIBILITY
.  
 
* THESE STATIONS ARE PART OF THE UNIVERSITY OF SOUTH ALABAMA  
MESONET AND ARE NOT UNDER NWS OR FAA QUALITY CONTROL.
 
 
ALZ061>064-260200-  
COASTAL ALABAMA  
 
CITY SKY/WX TMP DP RH WIND PRES REMARKS
 
MOBILE REG APT CLOUDY 81 65 58 NE9 30.12R  
BROOKLEY FIELD MOCLDY 83 68 60 N12 30.11R  
USA CAMPUS* N/A 79 66 65 CALM 30.11R  
DOG RIVER* N/A 81 68 65 NW3 30.88  
 
 
CITY SKY/WX TMP DP RH WIND PRES REMARKS
 
GULF SHORES CLOUDY 78 78 100 CALM 30.09S  
 

 
 
ALZ051>060-260200-  
INTERIOR SOUTHWEST AND SOUTH CENTRAL ALABAMA  
 
CITY SKY/WX TMP DP RH WIND PRES REMARKS
 
GREENVILLE CLOUDY 76 60 57 N5 30.13R  
EVERGREEN CLOUDY 75 67 76 N3 30.12R  
ATMORE* NOT AVBL  
ANDALUSIA/OPP CLOUDY 81 67 62 N6 30.11R  
ANDALUSIA* N/A 79 63 57 N7 30.12R  
FLORALA APT CLOUDY 77 70 79 CALM 30.12R  
FLORALA* N/A 79 70 73 CALM 30.82R  
 

 
 
FLZ001>006-260200-  
WESTERN FLORIDA PANHANDLE  
 
CITY SKY/WX TMP DP RH WIND PRES REMARKS
 
PENSACOLA CLOUDY 81 72 74 E3 30.09S  
NAS PENSACOLA CLOUDY 80 73 79 NE5 30.09R  
MILTON MOCLDY 77 75 93 N3 30.10R  
WHTNG S FIELD CLOUDY 82 75 79 CALM 30.10R  
 
 
CITY SKY/WX TMP DP RH WIND PRES REMARKS
 
JAY* N/A 79 66 65 N6 30.12R  
DUKE FIELD MOCLDY 80 73 76 N5 30.10R  
CRESTVIEW CLOUDY 80 71 74 NE3 30.11R  
VALPARAISO LGT RAIN 79 75 87 SE7 30.10R  
DESTIN LGT RAIN 81 81 100 SE6 30.09R  
 

 
 
MSZ076-079-260200-  
INTERIOR SOUTHEAST MISSISSIPPI  
 
CITY SKY/WX TMP DP RH WIND PRES REMARKS
 
LEAKESVILLE* NOT AVBL  
AGRICOLA* N/A 81 66 61 NE2 30.11  
 

 
 
MARINE OBSERVATIONS  
 
STATION/POSITION TIME TEMP WIND PRES WAVE
 
AIR SEA DIR/SP/G HT/PER  
(UTC) (F) (DEG/KT/KT) (MB) (FT/S)  
PASCAGOULA 0048 84 20/ 5/ 8 1018.9R  
PETIT BOIS ISLND 0048 79 140/ 12/ 14 1020.0R  
GRAND BAY 2345 85 30/ 5 1019.0S  
KATRINA CUT 0000 84 90/ 10 1019.0  
CEDAR POINT 0030 84 40/ 13 1019.0R  
E DAUPHIN ISLAND 0000 82 120/ 6/ 6 1018.3R  
MIDDLE BAY LIGHT 0000 84 10/ 16 1018.3  
USCG MOBILE BAY 0048 81 81 30/ 11/ 14 1020.1R  
STATE DOCKS 0042 82 80 1019.5R  
MEAHER PARK 0030 81 20/ 5 1019.6R  
FORT MORGAN 0048 82 100/ 7/ 9 N/A  
12 S ORANGE BCH 2350 83 84 60/ 12/ 12 1018.3R  
PENSACOLA BAY 0042 82 83 1019.3R  
64 S DAUPHIN ISL 0050 83 85 40/ 6/ 8 1019.0R 2/ 6  
67 S FORT MORGAN 0030 82 40/ 2 1018.6R  
 

 
 
SELECTED LOCATIONS ACROSS THE REGION  
 
CITY SKY/WX TMP DP RH WIND PRES REMARKS
 
NEW ORLEANS MOCLDY 82 76 81 S6 30.09R  
GULFPORT MOCLDY 83 70 64 N6 30.08S  
PASCAGOULA AP MOCLDY 82 71 69 N6 30.09R  
PASCAGOULA* NOT AVBL  
HATTIESBURG PTCLDY 78 66 66 N6 30.13R  
LAUREL PTCLDY 77 66 69 N7 30.17R  
MERIDIAN CLOUDY 71 66 84 N3 30.17R  
JACKSON CLOUDY 74 63 68 E3 30.17S  
MONTGOMERY CLOUDY 77 54 44 N5 30.13S  
TROY MOCLDY 76 63 64 N7 30.13R  
ASHFORD* N/A 79 63 57 N7 30.12R  
DOTHAN CLOUDY 79 71 76 N5 30.14R  
PANAMA CITY CLOUDY 76 74 93 CALM 30.08S  
 

 
 
 
 
CLICK HERE TO GO TO PREVIOUS BULLETINS.

The Nexlab AL Page
The Nexlab FL Page
The Nexlab MS Page Main Text Page